Temperature
18 18 18 18 18 18 18 18 17 17 17 17 16 16 15 15 15 15 15 14 14 14 14 14 14 14 14 14 14 14 14 14 14 14 14 14 14 14 14 13 13 13 13
18 18 18 18 18 18 18 18 18 17 17 17 17 16 16 16 15 15 15 15 14 14 14 14 14 14 14 14 14 14 14 14 14 14 14 14 14 14 14 13 13 13 13
19 19 18 18 18 18 18 18 18 18 17 17 17 17 16 16 16 16 16 15 15 15 15 14 14 14 14 14 14 14 14 14 14 13 14 14 14 14 13 13 13 13 13
19 19 19 18 18 18 18 18 18 18 18 17 17 17 17 16 16 16 16 16 15 15 15 15 15 14 14 14 14 14 14 14 14 13 13 13 14 14 14 14 13 13 13
20 19 19 19 18 18 18 17 17 17 17 17 17 17 17 16 16 16 16 16 16 16 15 15 15 15 15 14 14 14 13 13 13 13 13 13 14 14 14 14 13 13 13
20 20 19 19 18 18 18 17 17 17 17 17 17 17 17 16 16 16 16 16 15 15 15 15 15 15 15 15 15 14 14 14 13 13 13 13 13 13 13 13 13 13 13
20 20 19 19 18 18 17 17 17 17 17 16 16 16 16 17 16 16 16 16 16 15 15 15 15 14 15 15 15 15 14 14 14 14 13 14 14 13 13 13 13 12 12
19 19 19 18 18 17 17 17 17 16 16 16 16 16 16 16 16 16 16 16 15 16 15 15 15 15 15 14 14 14 14 14 14 14 14 14 14 13 13 13 12 12 12
18 18 18 17 17 17 17 16 16 16 16 16 16 15 15 16 15 15 15 15 15 15 15 15 15 14 14 14 14 14 13 14 13 13 13 13 13 13 13 12 12 11 11
17 16 16 16 16 16 16 16 15 15 15 15 15 15 15 15 15 14 14 14 14 14 14 14 14 14 14 14 13 13 13 13 13 13 13 13 13 13 12 12 12 11 11
15 15 15 15 15 15 15 14 15 15 15 14 14 14 14 14 14 14 14 13 13 13 13 13 13 13 13 13 13 13 13 13 13 12 12 12 12 12 12 12 12 12 11
14 14 14 14 14 14 14 14 14 14 14 14 14 14 14 13 13 13 13 13 13 12 12 12 12 12 12 12 12 13 13 12 12 12 11 11 12 12 12 12 12 12 12
13 13 13 13 13 13 13 13 13 13 13 13 13 13 13 13 12 12 12 12 12 11 11 11 11 11 11 12 12 12 12 12 11 11 11 11 11 11 12 12 12 12 12
12 12 12 13 13 12 12 12 12 12 12 12 12 12 12 12 12 11 11 11 11 11 11 10 10 11 11 11 11 11 11 11 11 11 11 11 11 11 11 11 11 12 12
12 12 12 12 12 12 12 12 12 12 12 11 11 11 11 11 10 10 10 10 10 10 9 9 10 10 9 10 10 10 11 11 11 11 10 10 10 10 11 11 11 11 11
11 12 12 12 12 12 12 12 12 12 12 11 11 11 10 10 10 9 9 9 9 9 9 9 9 9 9 9 9 10 10 10 10 10 10 10 10 10 10 10 10 10 10
11 11 11 11 11 12 12 12 12 12 11 11 11 10 10 9 9 9 8 8 8 8 8 8 8 8 8 8 8 9 9 9 9 9 10 10 10 9 9 10 10 10 10
11 11 11 11 11 11 11 11 11 11 11 11 10 10 9 9 8 8 8 7 7 7 7 7 7 7 7 7 7 7 7 8 8 8 8 9 9 9 9 9 9 9 9
10 10 10 10 10 11 11 10 10 10 10 9 9 8 8 7 7 7 7 7 6 6 6 6 6 6 6 6 6 6 6 6 7 7 7 8 8 8 8 8 9 9 9
10 10 10 10 10 10 10 9 9 9 8 8 7 7 6 6 6 6 6 6 5 5 5 5 5 5 5 5 5 5 5 6 6 6 6 7 7 7 8 8 8 8 8
9 10 10 10 9 9 8 8 8 7 7 6 6 5 5 5 5 5 4 4 4 4 4 4 4 4 4 4 4 5 5 5 5 5 6 6 6 7 7 7 7 8 8
9 9 9 9 8 7 7 7 6 6 5 5 5 4 4 4 3 3 3 3 3 3 3 3 3 3 3 3 3 4 4 4 4 5 5 5 6 6 6 7 7 7 7
8 8 8 7 7 6 6 5 5 4 4 4 3 3 3 3 2 2 2 2 2 2 2 2 2 2 3 3 3 3 3 3 4 4 4 5 5 5 6 6 6 6 7
7 7 7 6 5 5 4 4 4 3 3 2 2 2 2 2 2 2 2 2 2 2 2 2 2 2 2 2 3 3 3 3 3 4 4 4 5 5 5 5 6 6 6
7 6 5 5 4 4 3 3 3 2 2 2 2 2 1 1 1 1 1 1 1 1 1 2 2 2 2 2 2 3 3 3 3 4 4 4 4 5 5 5 5 5 6
5 4 4 4 3 3 3 2 2 2 1 1 1 1 1 1 1 1 1 1 1 1 1 1 1 2 2 2 2 3 3 3 4 4 4 4 4 4 4 5 5 5 5
Wind_Speed
12 11 10 11 10 8 7 7 6 5 6 7 8 7 7 7 7 7 6 5 6 6 5 5 5 4 3 4 3 3 3 3 4 4 3 1 2 3 4 6 9 11 13
12 11 10 9 10 10 10 8 8 7 7 8 8 8 8 8 8 8 8 7 7 7 7 6 5 6 6 5 4 5 4 4 4 5 5 4 5 5 6 6 8 11 12
13 12 11 11 11 10 10 9 9 9 9 9 9 9 9 8 8 9 8 8 7 7 7 7 7 7 6 5 5 5 5 5 4 5 5 5 5 5 5 6 7 6 12
14 13 12 12 11 11 10 10 10 10 10 9 10 10 9 9 8 9 9 9 8 8 7 7 7 7 8 7 7 7 7 6 6 6 6 6 6 6 5 5 5 6 7
11 12 12 12 11 10 10 10 10 11 12 10 9 9 9 9 10 10 9 10 9 9 8 8 9 10 11 9 9 7 6 6 6 6 6 6 6 4 4 4 5 5 5
7 8 9 10 10 10 9 9 9 10 9 9 9 9 10 11 12 14 11 9 8 9 9 9 10 11 13 15 15 13 10 9 8 7 7 7 7 5 4 4 4 4 5
5 5 5 7 8 8 9 8 9 9 8 8 8 9 9 9 9 10 11 7 7 7 8 8 10 12 11 11 14 17 17 18 16 11 11 11 9 7 6 6 6 6 6
3 2 2 3 5 6 6 6 5 5 6 6 6 7 7 9 10 11 11 9 9 9 9 9 9 11 13 10 10 11 12 14 16 15 14 15 14 10 9 8 8 8 8
6 6 5 3 0 2 3 4 4 4 4 4 4 5 7 7 9 10 10 7 8 10 10 11 11 11 15 15 12 12 12 11 16 20 20 20 22 20 13 8 8 8 10
8 8 8 8 7 4 3 1 0 1 3 4 5 5 6 6 7 9 11 7 8 8 9 11 14 14 15 14 11 12 14 13 12 13 12 16 17 17 18 14 12 11 11
8 8 8 8 6 6 5 3 2 2 2 3 4 5 5 5 6 8 11 7 7 8 8 8 6 7 9 11 10 11 15 13 10 11 11 10 11 12 13 14 14 14 14
9 9 8 8 6 5 4 3 3 3 3 4 4 5 4 3 3 4 8 10 8 7 8 8 6 9 10 12 11 14 17 14 11 11 11 11 11 11 11 13 14 15 16
9 8 7 5 4 4 4 3 3 2 3 4 4 4 4 3 3 3 2 6 9 8 9 11 13 15 15 12 15 17 14 11 11 13 13 13 11 11 11 11 12 14 16
6 4 3 4 4 4 3 4 4 4 4 4 5 5 5 4 5 5 5 5 7 7 8 11 14 16 15 15 15 13 11 11 12 13 12 11 10 11 11 11 11 10 11
6 5 4 3 3 2 2 2 2 1 0 2 3 3 4 4 4 4 4 5 6 7 8 8 9 10 9 9 9 9 9 9 11 11 11 12 12 12 11 9 9 9 10
7 7 6 5 4 4 3 3 2 3 5 6 6 4 3 3 4 6 7 9 10 9 6 9 10 10 11 10 10 9 9 9 9 9 10 11 11 11 11 10 10 10 11
7 6 6 6 7 6 6 6 5 4 5 7 7 6 6 7 8 9 11 12 12 9 7 9 9 9 9 10 10 10 10 10 9 9 10 10 10 10 11 11 11 11 11
8 6 6 6 7 7 7 7 7 7 6 4 3 4 4 6 10 12 12 10 9 7 7 9 9 9 9 9 9 10 10 11 11 10 10 9 9 10 10 11 10 11 10
8 6 6 7 8 8 7 7 8 8 8 7 7 5 5 8 11 12 9 6 9 10 9 9 10 10 10 9 9 9 10 11 11 11 11 11 10 10 10 10 10 12 11
6 5 6 8 9 7 8 9 9 9 9 9 9 9 10 11 10 9 7 7 8 9 9 10 10 10 10 10 9 10 10 11 11 11 11 11 10 10 10 11 10 10 9
9 8 8 8 7 8 9 9 9 9 9 9 9 9 11 11 10 11 10 10 10 10 10 10 10 10 9 9 9 10 12 11 11 10 11 10 10 9 9 9 9 8 8
9 8 8 8 8 8 8 9 9 9 10 10 10 10 12 10 10 10 11 11 11 10 10 10 10 10 10 10 9 10 10 11 11 11 11 11 10 10 9 8 8 8 8
8 8 8 7 8 8 8 8 9 9 9 10 10 10 10 10 10 10 10 11 10 10 10 10 10 10 10 9 9 9 9 10 10 11 11 10 10 10 9 10 10 10 9
7 8 8 8 8 8 8 8 8 9 9 9 9 9 9 9 10 11 11 10 11 11 10 10 11 13 16 12 10 10 9 10 12 11 12 11 11 10 10 10 10 9 9
7 8 8 7 7 7 7 8 8 9 9 9 9 9 9 10 10 10 10 10 12 12 13 12 10 11 15 17 15 13 13 13 12 11 10 10 11 12 11 11 9 9 9
7 8 7 7 7 7 7 8 8 9 8 8 9 9 10 10 10 11 11 10 12 12 12 11 13 15 16 15 16 16 14 14 13 12 10 9 10 10 10 9 11 10 10
Wind_Direction
193 194 193 188 194 197 200 202 198 182 167 171 180 186 191 192 192 199 232 228 206 221 238 231 217 237 279 310 299 272 257 258 272 291 304 313 200 219 228 245 263 260 247
193 191 194 191 191 195 200 198 191 190 186 185 191 194 202 202 197 198 217 231 218 218 227 236 233 234 218 236 268 280 273 259 251 271 281 277 260 228 218 223 249 265 269
193 193 194 199 199 199 199 195 192 191 195 196 196 201 208 210 201 203 211 229 234 229 227 228 229 235 238 233 240 256 269 272 249 253 265 261 257 248 232 231 244 251 265
194 194 196 199 201 201 200 196 193 193 199 206 201 202 206 213 212 209 211 218 229 236 236 235 234 231 232 229 239 240 247 260 266 261 258 257 251 241 222 224 246 244 251
191 194 197 197 198 200 202 200 197 197 204 207 209 207 209 213 218 213 214 220 219 229 236 237 239 236 236 233 240 239 242 243 252 257 260 262 258 252 240 231 247 256 254
181 187 189 190 193 198 201 200 197 199 205 202 209 214 216 224 222 214 209 227 225 226 232 235 241 240 234 230 235 239 240 246 252 257 264 263 265 268 267 264 262 266 270
163 175 178 180 188 193 200 199 201 199 203 213 212 217 219 226 224 208 210 221 242 251 252 250 254 255 241 230 229 233 240 241 238 243 255 259 266 271 277 275 267 264 263
116 119 130 168 194 193 190 189 194 196 206 216 226 232 235 232 215 210 212 223 240 249 254 256 255 258 264 258 247 239 233 236 234 235 242 248 251 252 254 258 259 264 260
59 54 43 39 78 164 184 194 188 190 202 214 227 240 244 247 225 214 208 231 244 250 254 256 256 255 255 255 256 256 253 248 240 233 225 230 235 240 242 253 254 257 262
50 56 52 48 41 41 45 42 11 234 232 241 244 242 247 252 235 216 207 234 249 255 256 255 254 255 261 258 254 255 256 255 257 259 243 238 240 241 235 232 240 249 256
53 55 54 53 52 52 38 17 9 345 304 277 273 269 263 256 246 218 206 226 251 264 270 272 272 278 271 270 262 258 259 262 262 258 258 251 240 236 234 230 229 234 242
43 47 47 44 41 39 37 11 353 343 314 295 285 283 279 281 277 227 210 227 258 272 277 282 292 323 313 293 277 265 265 267 267 262 258 256 252 246 240 233 227 224 229
43 37 33 37 40 29 16 360 342 338 330 329 330 325 325 336 352 10 305 271 269 268 279 290 302 303 300 289 270 263 263 262 258 259 258 257 255 254 250 245 238 231 229
44 33 23 30 33 29 5 360 358 356 1 354 340 335 336 348 14 17 356 327 307 294 297 304 304 290 280 271 272 268 254 250 250 255 259 261 262 260 257 253 250 243 240
20 9 0 12 22 348 332 324 320 332 276 281 316 325 329 331 340 348 337 325 321 317 316 301 292 287 283 278 275 270 263 256 252 254 260 264 264 263 262 259 256 251 248
9 359 352 355 2 349 335 330 289 257 224 223 235 255 288 284 294 306 305 297 292 294 297 288 288 287 288 289 287 287 283 279 273 267 264 262 263 264 265 261 257 255 253
352 344 342 348 349 341 337 331 322 294 246 238 243 253 260 289 306 304 300 302 296 289 281 284 287 293 299 302 302 302 299 297 293 285 278 273 268 265 264 264 262 259 256
338 340 343 348 341 327 323 324 324 327 331 326 281 264 277 291 294 293 299 311 304 298 298 301 304 305 305 307 310 312 311 310 305 300 292 286 282 275 269 266 263 262 260
331 339 351 338 321 320 333 337 337 340 340 340 343 347 341 320 306 302 311 310 309 311 314 315 314 313 313 312 313 312 309 306 305 304 297 290 284 279 275 270 266 265 260
328 331 326 321 320 339 349 346 344 343 340 345 347 350 351 339 330 328 327 321 315 316 318 317 316 314 315 313 312 312 310 307 304 301 298 293 287 281 278 276 273 270 263
331 330 322 325 348 358 351 343 341 342 344 344 342 353 357 339 333 336 337 335 331 326 324 321 318 317 315 312 311 312 311 308 308 307 306 303 297 293 289 283 279 277 275
321 330 341 349 355 4 351 343 351 353 349 345 340 342 347 343 340 337 333 330 328 326 325 323 320 319 317 313 313 313 310 311 313 314 310 308 307 302 298 293 289 284 280
322 338 350 360 360 1 356 359 354 350 349 346 344 341 341 340 335 332 329 327 326 325 323 320 317 317 316 314 310 307 307 308 307 307 307 306 307 305 300 295 290 287 283
337 356 360 1 2 359 355 354 352 351 347 342 341 341 340 338 333 332 332 329 327 324 322 322 319 319 320 319 315 313 313 315 312 306 303 301 301 300 299 297 294 293 292
1 10 4 2 360 357 356 354 352 350 347 344 344 342 339 335 332 334 334 332 329 327 326 325 323 323 324 326 326 326 328 321 312 309 304 298 295 294 294 295 295 295 293
18 15 6 4 4 2 0 357 354 351 347 346 344 342 340 339 338 337 335 335 333 330 327 328 329 330 332 333 334 336 331 325 320 315 307 294 292 293 299 299 300 296 292
Height
1517 1520 1523 1525 1528 1530 1532 1534 1536 1538 1539 1540 1541 1543 1544 1545 1546 1547 1548 1549 1550 1550 1551 1551 1552 1552 1552 1553 1554 1554 1554 1554 1554 1553 1553 1553 1551 1551 1550 1549 1548 1547 1546
1514 1517 1519 1522 1524 1526 1528 1530 1532 1534 1536 1537 1538 1540 1541 1542 1544 1544 1545 1547 1548 1548 1548 1549 1549 1550 1550 1550 1550 1550 1551 1551 1551 1549 1549 1549 1548 1547 1546 1545 1544 1543 1542
1511 1513 1516 1518 1520 1522 1524 1526 1528 1530 1532 1533 1535 1536 1538 1539 1541 1541 1542 1543 1544 1545 1546 1546 1546 1547 1546 1547 1547 1547 1547 1547 1547 1546 1545 1545 1544 1543 1542 1541 1540 1539 1538
1507 1509 1511 1513 1516 1518 1520 1522 1524 1526 1528 1529 1531 1532 1534 1535 1537 1538 1539 1540 1541 1541 1542 1542 1543 1543 1543 1543 1543 1542 1542 1542 1542 1541 1540 1540 1539 1539 1538 1537 1535 1535 1534
1504 1506 1507 1509 1512 1514 1516 1518 1520 1522 1523 1525 1527 1529 1530 1531 1533 1534 1535 1536 1537 1537 1538 1538 1538 1538 1538 1538 1538 1538 1538 1537 1537 1536 1536 1535 1535 1534 1533 1532 1531 1530 1529
1500 1501 1503 1504 1507 1509 1512 1514 1516 1517 1519 1521 1523 1524 1526 1527 1529 1530 1531 1532 1533 1533 1533 1533 1533 1533 1533 1533 1533 1533 1533 1532 1531 1531 1530 1529 1528 1529 1528 1527 1526 1525 1523
1495 1497 1499 1500 1502 1504 1507 1509 1511 1513 1515 1517 1518 1520 1520 1522 1524 1526 1527 1528 1528 1528 1528 1528 1528 1528 1528 1527 1526 1526 1526 1525 1525 1524 1523 1522 1522 1522 1522 1521 1519 1518 1516
1491 1494 1495 1496 1499 1500 1502 1504 1506 1508 1510 1512 1513 1515 1517 1518 1519 1520 1521 1522 1522 1522 1522 1522 1522 1521 1522 1521 1521 1519 1518 1517 1517 1516 1515 1514 1515 1515 1515 1514 1513 1511 1509
1488 1490 1493 1494 1494 1495 1498 1500 1503 1505 1506 1507 1509 1511 1512 1513 1514 1515 1515 1515 1515 1515 1515 1515 1514 1514 1514 1514 1513 1512 1510 1509 1509 1508 1507 1506 1506 1506 1507 1506 1504 1504 1501
1488 1488 1491 1492 1492 1493 1496 1498 1500 1501 1503 1504 1505 1506 1507 1508 1508 1509 1509 1509 1508 1508 1508 1508 1507 1507 1506 1506 1505 1503 1501 1500 1500 1500 1499 1497 1497 1496 1497 1497 1496 1495 1493
1490 1490 1491 1492 1492 1493 1495 1497 1497 1499 1500 1501 1502 1502 1503 1503 1503 1503 1503 1502 1502 1501 1501 1501 1500 1499 1498 1497 1496 1494 1493 1492 1491 1490 1489 1488 1487 1486 1486 1485 1485 1485 1484
1492 1493 1492 1492 1493 1494 1494 1496 1497 1497 1498 1498 1499 1499 1499 1499 1499 1498 1497 1496 1495 1495 1494 1493 1493 1491 1490 1488 1487 1485 1484 1483 1481 1479 1478 1477 1477 1476 1476 1475 1474 1473 1473
1494 1494 1494 1494 1494 1494 1495 1495 1496 1496 1497 1496 1496 1496 1496 1495 1494 1493 1491 1490 1489 1488 1487 1485 1484 1482 1481 1479 1477 1476 1475 1473 1471 1469 1467 1466 1466 1466 1466 1466 1465 1464 1463
1497 1497 1496 1496 1496 1495 1495 1495 1495 1495 1495 1495 1494 1493 1492 1491 1490 1488 1486 1485 1484 1482 1480 1478 1476 1474 1472 1470 1468 1466 1465 1463 1461 1459 1457 1456 1456 1456 1455 1455 1455 1454 1453
1500 1500 1499 1498 1497 1496 1496 1496 1495 1495 1494 1493 1492 1491 1489 1488 1486 1484 1482 1480 1478 1476 1473 1470 1468 1466 1464 1462 1460 1459 1457 1455 1453 1451 1449 1447 1446 1445 1444 1444 1444 1443 1442
1502 1501 1500 1500 1499 1498 1497 1496 1495 1494 1492 1491 1489 1488 1485 1484 1482 1480 1478 1476 1473 1471 1468 1464 1462 1460 1458 1456 1454 1451 1449 1447 1445 1443 1440 1438 1436 1435 1434 1433 1433 1432 1431
1503 1502 1502 1501 1500 1498 1497 1495 1494 1492 1491 1489 1486 1484 1482 1480 1478 1475 1473 1470 1468 1465 1463 1460 1457 1455 1452 1450 1447 1445 1442 1440 1437 1434 1432 1430 1428 1426 1425 1424 1423 1422 1421
1505 1504 1502 1501 1499 1497 1496 1494 1492 1490 1488 1486 1484 1481 1479 1476 1473 1471 1468 1465 1463 1461 1458 1456 1453 1450 1447 1445 1441 1438 1435 1432 1429 1426 1424 1421 1419 1418 1416 1415 1414 1413 1412
1505 1503 1502 1500 1498 1496 1494 1492 1490 1488 1486 1484 1481 1478 1475 1472 1470 1467 1465 1462 1459 1457 1454 1451 1448 1445 1442 1439 1436 1432 1429 1426 1422 1419 1416 1414 1412 1410 1408 1406 1405 1404 1403
1504 1502 1500 1498 1496 1494 1492 1490 1488 1486 1484 1481 1479 1476 1472 1469 1466 1464 1461 1458 1455 1452 1449 1446 1443 1440 1436 1433 1430 1426 1423 1419 1416 1413 1409 1406 1405 1403 1401 1399 1398 1396 1395
1502 1500 1498 1497 1495 1492 1490 1488 1487 1484 1482 1479 1476 1473 1469 1466 1464 1461 1457 1454 1451 1448 1444 1440 1437 1434 1430 1427 1424 1420 1417 1413 1410 1406 1403 1400 1398 1395 1394 1392 1390 1390 1389
1500 1499 1497 1495 1493 1490 1488 1487 1485 1482 1479 1476 1473 1470 1467 1464 1460 1457 1453 1450 1447 1443 1439 1436 1432 1428 1424 1421 1418 1414 1411 1407 1404 1401 1397 1394 1392 1389 1388 1386 1384 1383 1382
1499 1497 1495 1493 1491 1488 1486 1484 1482 1480 1477 1474 1470 1467 1464 1460 1457 1453 1450 1446 1442 1438 1435 1431 1426 1422 1419 1415 1412 1408 1405 1401 1398 1395 1392 1389 1386 1384 1382 1381 1379 1378 1377
1497 1495 1493 1491 1489 1487 1485 1482 1480 1477 1474 1471 1468 1465 1461 1457 1454 1450 1446 1442 1438 1434 1430 1426 1422 1418 1413 1410 1406 1402 1399 1395 1392 1389 1386 1383 1381 1379 1377 1375 1374 1372 1371
1494 1492 1491 1489 1487 1485 1483 1480 1478 1475 1472 1469 1466 1463 1459 1455 1452 1448 1443 1439 1435 1430 1426 1422 1417 1413 1408 1404 1400 1396 1392 1389 1386 1382 1380 1378 1375 1374 1372 1370 1369 1367 1366
1492 1491 1489 1487 1485 1483 1481 1479 1476 1474 1471 1468 1465 1461 1457 1454 1450 1446 1441 1436 1432 1427 1422 1418 1413 1408 1404 1399 1395 1391 1387 1383 1380 1377 1374 1372 1370 1369 1367 1365 1364 1362 1361